Flag for Canada Weather past 2 weeks in Kings County, Nova Scotia, Canada

Now
64 °F

Mild.


Feels Like: 64 °F
Forecast: 62 / 77 °F
Wind: 8 mph from West

Location: McNabs Island - AUT

Current Time: Aug 30, 2015 at 5:03:13 AM

Latest Report: Aug 30, 2015 at 4:00 AM


Visibility: N/A

Pressure: 30.02 "Hg

Humidity: 93%

Dew point: 62 °F

Location of Kings CountyLocation

Historic Weather in Kings County — Graph

°F

Kings County temperature yesterday

Maximum temperature yesterday: 81 °F (at 2:00 PM)
Minimum temperature yesterday: 59 °F (at 3:00 AM)
Average temperature yesterday: 68 °F

Past Weeks' High & Low Weather Summary

 TemperatureHumidityPressure
High81 °F (Aug 17, 1:00 PM)100% (Aug 19, 11:00 PM)30.23 "Hg (Aug 19, 11:00 PM)
Low59 °F (Aug 29, 3:00 AM)42% (Aug 28, 6:00 PM)29.79 "Hg (Aug 27, 6:00 PM)
Average69 °F88%30.03 "Hg
* Reported Aug 15 4:00 AM — Aug 30 4:00 AM, Kings County, Weather by CustomWeather, © 2015

Note: Actual official high and low records may vary slightly from our data, if they occured in-between our weather recording intervals... More about our weather records

Advertising

Kings County weather history for previous 24 hours

 ConditionsComfort  
Time TempWeatherWind HumidityBarometerVisibility
4:00 AM
Sun, Aug 30
64 °FMild.8 mph93%30.02 "HgN/A
3:00 AM65 °FMild.14 mph92%30.01 "HgN/A
2:00 AM65 °FMild.12 mph92%30.03 "HgN/A
1:00 AM64 °FMild.7 mph92%30.05 "HgN/A
12:00 AM64 °FMild.3 mph88%30.06 "HgN/A
11:00 PM
Sat, Aug 29
65 °FMild.3 mph88%30.05 "HgN/A
10:00 PM65 °FMild.3 mph92%30.05 "HgN/A
9:00 PM67 °FMild.3 mph91%30.04 "HgN/A
8:00 PM69 °FMild.10 mph86%30.02 "HgN/A
7:00 PM70 °FMild.12 mph81%30.02 "HgN/A
6:00 PM72 °FMild.15 mph72%30.03 "HgN/A
5:00 PM74 °FMild.15 mph67%30.03 "HgN/A
4:00 PM77 °FMild.12 mph61%30.05 "HgN/A
3:00 PM77 °FMild.14 mph58%30.06 "HgN/A
2:00 PM81 °FWarm.8 mph51%30.06 "HgN/A
1:00 PM80 °FWarm.7 mph54%30.08 "HgN/A
12:00 PM77 °FWarm.7 mph54%30.10 "HgN/A
11:00 AM72 °FMild.2 mph69%30.10 "HgN/A
10:00 AM69 °FMild.1 mph70%30.09 "HgN/A
9:00 AM66 °FMild.2 mph72%30.09 "HgN/A
8:00 AM63 °FMild.3 mph85%30.09 "HgN/A
7:00 AM59 °FCool.1 mph91%30.09 "HgN/A
6:00 AM60 °FCool.5 mph91%30.07 "HgN/A
5:00 AM60 °FCool.3 mph90%30.07 "HgN/A
Weather by CustomWeather, © 2015

See weather overviewHow to use our weather pages